Location: Unspecified
(0.0000°N, 0.0000°E)
Time: 18:03:56
(UTC+00:00)

Vanguard 3 - Pass Details

Date: 06 February 2023
Orbit: 509 x 3249 km, 33.3° (Epoch: 20 March)

Event Time Altitude Azimuth Distance (km) Brightness Sun altitude
Rises 22:07:41 0° 325° (NW) 5,662 11.5 -55.2°
Enters shadow 22:10:55 - 334° (NNW) 5,200 11.2 -55.9°
Reaches altitude 10° 22:12:05 10° 338° (NNW) 5,058 - -56.1°
Maximum altitude 22:24:43 27° 30° (NNE) 4,582 - -58.9°
Drops below altitude 10° 22:39:55 10° 81° (E) 6,180 - -62.1°
Sets 22:45:59 0° 92° (E) 7,106 - -63.3°
